User: anonymous   Login
Location: Unspecified
(0.0000°N, 0.0000°E)
Time: 23:07:40
(UTC+01:00)
Language:

Cosmos 773 Rocket - Orbit

View from above orbital plane
View from above orbital plane
View from above satellite
View from above satellite

Ground track
Ground track

The orbit data is extracted from the following two-line orbital elements,

1  8344U 75094B   17328.08413004 +.00000092 +00000-0 +37965-4 0  9990
2  8344 074.0561 190.9887 0020967 050.4003 309.8999 14.39108776208421
Epoch (UTC): 24 November 2017 02:01:08
Eccentricity: 0.0020967
inclination: 74.0561°
perigee height: 746 km
apogee height: 776 km
right ascension of ascending node: 190.9887°
argument of perigee: 50.4003°
revolutions per day: 14.39108776
mean anomaly at epoch: 309.8999°
orbit number at epoch: 20842

The dashed part of the orbit path shows where the satellite is in the earth's shadow,  

DLR